Temperature
11 11 11 11 11 11 11 11 11 11 11 10 10 10 10 10 10 10 10 10 10 10 10 10 10 10 10 10 10 11 10 10 10 10 10 10 10 10 10 10 10 10 10
11 11 11 11 10 10 10 10 10 10 10 10 10 10 10 10 10 10 10 10 10 10 10 10 10 10 10 10 10 10 10 10 10 10 10 10 10 10 9 9 9 9 9
10 10 10 10 10 10 10 10 10 10 9 9 9 9 9 9 9 9 9 9 9 9 9 9 9 9 9 9 9 9 10 10 9 9 9 9 9 9 9 9 9 9 9
10 10 10 10 10 9 9 9 9 9 9 9 9 9 9 9 9 9 9 9 9 9 9 9 9 9 9 9 9 9 9 9 9 9 9 9 9 9 9 9 9 9 9
9 9 9 9 9 9 9 9 8 8 8 8 8 8 8 8 8 8 9 9 9 9 9 9 9 9 9 9 9 9 9 9 9 9 9 9 8 8 8 8 8 8 8
8 8 8 8 8 8 8 8 8 8 8 8 8 8 8 8 8 8 8 8 8 8 8 8 8 8 8 8 8 8 8 8 8 8 8 8 8 8 8 8 8 8 8
8 8 8 8 8 8 8 8 7 7 7 7 7 7 7 7 7 7 7 7 7 7 8 8 8 8 8 8 8 8 8 8 8 8 8 8 8 8 8 8 8 8 8
7 7 7 7 7 7 7 7 7 7 7 6 6 6 6 6 7 7 7 7 7 7 7 7 7 7 7 7 8 8 8 7 7 8 8 8 7 8 7 7 7 7 7
6 7 7 7 7 7 7 7 6 6 6 6 6 5 5 5 6 6 6 7 7 7 7 7 7 7 7 7 7 7 7 7 7 7 7 7 7 7 7 7 7 7 7
6 6 6 6 6 6 6 6 6 6 6 6 5 5 5 5 5 5 6 6 6 6 6 6 6 7 6 6 7 7 7 7 7 7 7 7 7 7 7 7 7 7 6
5 5 5 5 5 5 5 5 6 6 5 5 5 5 5 5 5 5 5 5 6 6 6 6 6 6 6 6 6 6 6 6 6 6 6 6 7 7 6 6 6 6 6
5 5 5 5 5 5 5 5 5 5 5 5 5 5 4 4 4 4 4 4 5 5 5 5 5 5 5 5 5 5 5 6 6 6 6 6 6 6 6 6 6 6 6
4 4 4 4 4 4 4 4 4 4 4 4 4 4 4 4 4 4 4 3 3 4 5 5 5 5 5 5 5 5 5 5 5 5 5 6 6 6 6 6 6 6 6
4 4 4 4 4 4 4 4 4 4 4 4 4 4 4 4 3 3 3 3 3 3 3 4 4 4 4 4 4 4 4 4 4 4 4 5 5 5 5 5 5 5 5
3 3 3 3 3 3 3 3 3 3 3 3 3 3 3 3 3 3 2 2 2 2 2 3 3 4 4 3 3 3 4 4 4 4 4 4 4 4 4 4 4 4 5
3 3 3 3 3 3 3 3 3 3 3 2 2 2 2 2 2 2 2 2 2 1 1 2 2 3 3 3 3 3 3 3 3 3 3 3 4 4 4 4 4 4 4
2 2 2 2 2 2 2 2 2 2 2 2 2 2 2 2 1 1 1 1 1 1 1 1 1 2 2 2 2 2 2 2 3 3 3 3 3 3 3 3 3 3 3
2 2 2 1 1 2 1 1 1 1 1 1 1 1 1 1 1 1 1 1 0 0 0 0 1 1 1 1 1 1 2 2 2 2 2 2 2 2 2 3 3 3 3
1 1 1 1 1 1 1 1 1 1 1 0 0 0 0 0 0 0 -0 -0 -0 -0 -0 -0 -0 -0 0 0 0 1 1 1 1 1 1 1 1 2 2 2 2 2 2
0 0 0 0 0 0 0 -0 -0 -0 -0 -0 -0 -0 -0 -1 -1 -1 -1 -1 -1 -1 -1 -1 -1 -1 -1 -1 -1 -1 0 0 1 1 1 1 1 1 1 1 1 2 2
-1 -1 -0 -1 -1 -1 -1 -1 -1 -1 -1 -1 -1 -1 -1 -1 -1 -1 -1 -1 -2 -2 -2 -2 -2 -2 -1 -1 -1 -1 -1 -1 -0 -0 -0 0 0 0 0 1 1 1 1
-1 -1 -1 -1 -1 -1 -1 -2 -2 -2 -2 -2 -2 -2 -2 -2 -2 -2 -2 -2 -2 -2 -2 -2 -2 -2 -2 -2 -2 -2 -2 -2 -2 -1 -1 -1 -1 -0 -0 -0 0 0 0
-2 -2 -2 -2 -2 -2 -2 -2 -2 -2 -2 -3 -3 -3 -3 -3 -2 -2 -2 -2 -2 -2 -3 -3 -3 -3 -3 -3 -3 -3 -3 -3 -3 -2 -2 -2 -1 -1 -1 -1 -1 -1 -0
-3 -3 -3 -3 -3 -3 -3 -3 -3 -3 -3 -3 -3 -3 -3 -3 -3 -3 -3 -3 -3 -3 -3 -3 -3 -3 -3 -3 -3 -3 -3 -3 -3 -3 -3 -3 -2 -2 -2 -1 -1 -1 -1
-4 -4 -4 -4 -4 -3 -4 -4 -4 -4 -4 -4 -4 -4 -4 -4 -4 -4 -4 -4 -3 -3 -3 -4 -4 -4 -4 -4 -4 -4 -4 -4 -4 -4 -4 -4 -3 -3 -2 -2 -2 -2 -2
-4 -4 -4 -4 -4 -4 -4 -4 -4 -4 -4 -5 -4 -5 -5 -4 -4 -4 -4 -4 -4 -4 -4 -4 -4 -4 -4 -4 -5 -5 -5 -5 -5 -5 -5 -4 -4 -4 -4 -3 -3 -2 -2
Wind_Speed
3 3 4 4 5 5 5 5 6 6 7 7 7 7 6 6 5 4 4 4 4 5 5 5 5 6 7 7 7 6 6 7 7 8 8 7 8 8 8 8 8 8 8
4 4 3 3 4 5 5 5 5 5 5 5 5 5 5 5 5 4 4 4 4 5 5 5 5 6 6 6 6 5 5 6 6 6 7 6 7 7 7 7 7 7 7
5 5 3 3 3 4 5 5 5 5 4 4 4 4 4 4 3 3 3 3 3 4 5 5 4 4 5 5 5 4 4 5 5 5 6 6 5 6 5 5 5 6 5
4 4 3 2 3 4 4 4 3 2 2 2 2 2 2 3 3 2 3 3 3 3 4 4 4 3 3 4 3 3 4 5 5 5 5 5 4 5 5 5 4 4 4
4 4 3 3 4 4 3 3 2 2 2 2 2 2 2 2 2 2 2 2 3 3 3 3 3 2 2 3 3 3 4 4 5 4 4 4 3 4 5 5 4 4 4
4 4 3 3 4 3 2 2 2 2 2 2 2 2 2 1 1 1 1 2 2 2 3 3 3 2 1 2 3 3 3 4 4 4 4 4 3 3 4 5 5 4 4
4 4 3 3 3 3 3 3 2 3 2 2 2 1 2 1 1 1 1 1 1 1 2 2 3 2 1 2 2 3 4 4 5 5 5 5 4 3 3 4 5 4 4
4 4 4 3 3 3 3 3 2 2 1 1 2 1 0 2 1 1 1 0 0 1 1 1 2 2 2 2 3 4 4 5 5 6 7 6 6 6 5 5 6 5 5
4 4 5 3 3 4 4 4 4 3 3 1 1 2 2 2 1 1 1 0 1 0 1 1 1 2 3 3 4 4 4 5 6 7 8 8 8 8 7 6 7 7 7
4 4 4 4 4 3 4 4 4 2 4 4 1 0 0 2 2 1 2 1 1 1 1 1 1 1 2 2 3 4 5 6 7 7 8 9 10 10 9 9 8 9 8
2 3 4 4 3 3 4 4 3 3 3 4 3 1 0 0 0 2 2 2 2 2 1 2 2 2 2 2 3 3 4 6 6 6 6 7 8 9 9 9 9 9 9
2 2 4 3 4 4 4 4 4 5 4 3 3 2 2 2 2 2 3 2 3 2 2 2 2 3 2 2 3 4 5 6 6 6 7 7 8 8 8 8 9 8 9
2 4 3 3 3 3 4 4 4 5 5 4 4 3 3 2 2 2 2 2 2 2 1 2 3 3 3 3 4 6 5 6 6 7 7 8 8 9 8 8 8 9 10
4 3 4 4 3 4 4 4 4 4 4 4 4 4 3 3 2 2 3 2 2 2 2 3 1 3 3 4 5 6 6 6 7 8 8 8 8 8 9 9 9 9 8
3 3 4 4 4 4 4 4 4 4 4 4 4 4 4 3 3 2 2 3 4 3 4 3 2 2 4 5 6 6 6 8 8 9 9 8 8 8 9 10 10 9 9
3 4 4 4 4 5 5 5 4 4 5 4 4 4 4 3 3 3 3 3 3 4 4 3 3 2 3 5 7 6 8 9 9 10 10 9 9 8 8 8 9 10 10
3 4 5 4 5 5 5 5 5 5 6 5 4 5 5 4 4 4 3 3 3 3 5 4 2 2 3 4 5 6 7 7 8 10 11 10 10 9 9 9 8 8 8
3 4 3 4 5 6 6 6 6 6 6 6 6 6 6 4 5 4 4 5 4 4 4 6 3 2 3 3 3 3 5 6 7 9 11 11 11 10 9 9 9 9 9
3 3 3 4 5 6 6 6 7 7 7 7 7 7 6 6 6 5 5 5 5 4 4 4 4 3 2 2 2 3 4 4 6 8 9 10 10 10 10 9 9 9 9
3 3 3 4 5 5 6 6 6 6 6 6 6 6 7 7 8 7 6 7 5 5 4 4 4 3 2 2 2 3 4 3 4 6 8 9 10 10 11 11 10 9 10
3 3 3 3 4 4 5 6 6 6 6 6 6 6 6 7 8 7 6 6 6 5 5 5 4 3 3 2 3 3 5 4 4 3 4 5 7 7 8 10 10 10 10
2 2 2 3 3 4 6 7 6 5 5 6 5 5 5 6 7 8 8 7 7 7 7 6 5 6 6 5 4 3 3 3 4 2 3 5 5 5 7 8 10 11 11
2 2 2 2 3 4 6 6 6 5 5 5 5 4 4 4 5 5 6 7 7 9 10 8 7 7 6 6 5 5 5 5 5 3 3 5 3 6 7 9 11 11 10
2 2 2 2 3 4 5 4 4 4 4 4 5 5 5 5 5 5 4 5 6 6 8 7 7 7 7 6 6 6 6 5 4 2 3 4 3 5 6 8 11 11 11
3 3 2 2 3 4 5 4 3 2 3 4 4 4 5 5 6 6 5 5 5 5 7 8 9 8 8 7 5 3 3 3 4 3 2 3 3 4 4 5 8 10 11
3 3 3 2 2 3 4 4 3 2 2 3 3 4 5 6 7 7 6 6 6 6 4 4 6 6 5 5 7 5 5 5 3 3 2 2 2 2 3 3 4 6 8
Wind_Direction
100 98 102 98 93 95 95 94 94 93 89 86 88 91 88 83 82 84 84 87 103 111 118 116 124 127 121 117 113 110 116 120 121 117 113 117 114 111 111 109 111 107 101
124 107 105 101 97 102 105 104 102 101 97 94 88 90 90 89 88 88 90 93 106 117 122 124 119 132 132 129 124 122 119 126 126 126 123 120 122 118 118 115 112 114 109
133 127 119 115 105 109 107 101 93 90 87 84 76 77 80 81 82 80 87 97 108 121 130 130 126 130 142 138 140 139 137 142 144 141 138 130 135 138 131 128 128 123 120
134 130 123 124 111 111 110 109 105 81 75 76 69 51 64 74 73 80 91 104 108 121 133 135 139 135 158 160 163 167 162 157 160 156 148 145 140 154 153 147 146 146 145
142 138 130 130 123 110 111 122 93 95 102 88 75 41 35 49 58 72 84 98 109 120 128 133 141 153 176 181 185 186 178 169 171 168 167 169 170 177 181 172 172 170 166
153 144 135 133 133 122 112 121 118 91 106 110 81 41 6 2 55 66 60 74 87 104 125 133 134 142 177 186 207 213 206 194 191 185 184 185 187 183 192 189 186 185 182
160 152 136 142 144 146 146 130 120 112 91 92 86 39 4 1 43 47 66 65 64 87 124 137 141 148 187 207 215 227 232 227 219 213 211 209 208 212 213 212 203 200 197
172 166 153 163 166 149 141 135 129 135 124 119 120 119 350 323 338 347 341 197 267 97 106 171 171 185 202 216 233 239 247 248 240 233 230 227 223 224 228 227 224 217 215
182 171 172 170 174 166 169 170 162 155 167 177 110 144 161 219 288 296 286 305 343 310 276 253 229 227 226 231 240 236 245 260 258 241 236 238 237 233 234 238 234 231 227
185 179 172 173 181 178 176 181 183 176 174 183 192 17 152 165 174 259 288 299 329 307 304 279 267 258 257 248 265 258 250 260 267 253 248 245 243 239 238 236 239 236 236
188 182 182 183 188 188 184 183 183 182 186 191 184 174 133 88 184 190 238 269 300 274 266 250 237 239 260 262 262 277 283 272 266 264 264 262 254 243 242 243 245 239 239
210 205 198 197 194 192 190 190 191 188 194 192 190 181 181 180 193 191 212 247 263 267 270 244 231 220 235 268 271 303 299 290 283 270 271 272 269 262 251 251 252 251 246
227 224 215 209 204 203 195 188 192 196 198 197 204 207 203 203 186 188 198 224 261 277 262 252 232 227 236 250 262 289 292 299 298 292 280 275 276 267 254 253 256 257 256
234 231 221 213 212 202 195 191 199 205 200 204 213 212 212 213 199 195 193 189 242 268 250 251 254 230 249 256 264 275 275 285 296 299 294 285 278 274 259 252 254 257 262
244 235 223 208 208 207 198 189 205 211 208 209 215 217 216 217 210 213 205 198 198 230 244 236 243 246 254 256 264 267 271 277 283 286 291 290 279 274 263 251 248 251 256
227 226 223 211 213 212 205 200 206 210 208 215 217 215 221 219 210 209 212 221 217 221 243 239 241 270 254 262 267 265 264 273 273 277 280 283 283 271 268 256 248 248 251
232 224 226 217 217 216 210 206 211 210 209 216 218 216 226 220 211 211 210 215 225 224 249 266 263 265 241 261 273 267 264 263 268 272 277 277 279 276 267 260 252 248 249
255 238 221 219 226 217 211 208 212 213 212 217 220 220 225 222 219 215 211 216 223 225 236 263 274 270 255 257 261 268 270 268 269 273 276 277 276 276 269 264 254 249 248
259 250 228 224 227 220 215 212 211 213 215 219 219 219 223 218 225 224 217 218 223 229 231 245 264 268 269 275 284 285 281 271 276 278 278 277 276 279 270 268 259 252 250
258 246 241 239 237 226 219 214 212 214 217 222 223 223 223 220 223 222 222 219 217 221 225 236 255 259 258 265 257 272 282 274 281 277 276 277 277 280 272 268 264 259 256
273 253 240 246 242 230 223 215 210 212 214 220 225 226 226 227 228 224 225 219 211 218 225 233 247 255 250 254 252 252 264 281 275 259 276 274 274 272 272 270 265 260 258
294 267 241 237 244 245 240 229 219 212 212 217 225 230 233 233 234 237 240 234 224 219 221 227 237 243 249 248 250 253 261 278 274 254 267 278 270 267 268 273 272 264 257
299 275 255 252 255 262 259 241 228 217 211 216 222 226 234 240 234 229 241 242 241 241 230 224 231 237 241 237 234 243 248 256 265 275 271 273 267 266 269 272 280 271 260
293 279 260 262 267 273 269 255 236 220 214 221 225 225 227 235 230 228 233 239 239 242 242 236 230 234 236 236 225 230 242 255 273 261 236 261 268 268 277 270 272 270 262
317 306 277 259 262 277 280 269 254 219 224 232 236 231 230 232 240 238 231 240 250 252 253 250 251 251 249 246 236 226 234 249 267 259 229 246 267 282 279 263 265 266 262
308 316 311 289 277 278 281 277 262 230 231 241 243 246 248 248 246 238 226 227 244 249 242 249 255 256 249 241 233 226 224 235 256 251 214 228 266 301 294 270 268 275 267
Height
1533 1533 1534 1536 1536 1537 1538 1539 1540 1540 1541 1542 1543 1544 1546 1547 1548 1549 1550 1551 1551 1552 1553 1554 1555 1555 1556 1556 1557 1558 1558 1559 1560 1560 1561 1562 1563 1563 1564 1564 1565 1565 1565
1532 1532 1533 1534 1535 1536 1537 1538 1539 1539 1540 1541 1542 1543 1544 1546 1547 1547 1548 1549 1550 1551 1551 1552 1553 1554 1555 1555 1556 1557 1557 1558 1558 1559 1560 1561 1562 1562 1563 1564 1564 1564 1564
1530 1530 1531 1532 1533 1534 1535 1536 1537 1538 1539 1540 1540 1542 1542 1544 1545 1545 1547 1548 1549 1549 1550 1551 1552 1553 1554 1554 1555 1555 1556 1556 1557 1558 1559 1559 1560 1561 1562 1563 1563 1563 1564
1528 1529 1529 1530 1531 1532 1533 1534 1535 1536 1537 1538 1539 1540 1541 1542 1543 1544 1545 1546 1547 1547 1548 1549 1550 1551 1552 1553 1553 1554 1554 1554 1555 1556 1557 1558 1559 1560 1560 1561 1561 1562 1562
1525 1526 1527 1527 1528 1529 1531 1532 1533 1534 1535 1536 1536 1538 1539 1540 1541 1541 1542 1543 1544 1545 1546 1547 1548 1549 1549 1550 1551 1552 1552 1553 1554 1554 1555 1556 1557 1558 1558 1559 1560 1560 1561
1522 1524 1525 1525 1526 1527 1528 1529 1531 1532 1533 1534 1534 1535 1537 1538 1538 1539 1540 1541 1542 1543 1544 1545 1546 1546 1547 1548 1549 1550 1550 1551 1552 1552 1553 1554 1555 1555 1556 1557 1557 1558 1558
1519 1520 1521 1523 1523 1524 1525 1527 1528 1529 1530 1531 1532 1533 1534 1535 1536 1536 1537 1538 1539 1541 1542 1543 1543 1544 1544 1545 1546 1547 1548 1549 1549 1550 1551 1552 1552 1553 1554 1554 1555 1555 1556
1516 1517 1518 1519 1520 1521 1522 1524 1525 1526 1527 1528 1529 1530 1531 1533 1532 1533 1534 1535 1537 1538 1539 1540 1541 1541 1542 1542 1543 1544 1545 1546 1546 1547 1548 1549 1550 1550 1551 1551 1552 1553 1553
1512 1513 1514 1516 1517 1518 1519 1520 1522 1523 1523 1525 1527 1528 1529 1528 1528 1530 1531 1532 1533 1534 1536 1537 1537 1538 1538 1539 1540 1541 1542 1542 1543 1544 1544 1545 1546 1546 1547 1548 1549 1549 1550
1508 1509 1510 1511 1513 1513 1514 1516 1518 1519 1520 1521 1523 1525 1526 1526 1527 1526 1527 1528 1529 1530 1532 1532 1533 1534 1535 1535 1536 1537 1538 1539 1539 1540 1540 1541 1542 1543 1543 1544 1545 1545 1546
1504 1505 1506 1507 1508 1509 1510 1512 1513 1515 1516 1517 1518 1520 1521 1522 1523 1523 1522 1523 1524 1526 1527 1528 1529 1530 1531 1531 1532 1532 1533 1535 1535 1535 1536 1537 1537 1538 1539 1539 1540 1541 1541
1499 1500 1502 1503 1504 1505 1506 1507 1509 1510 1512 1513 1514 1515 1517 1518 1519 1520 1519 1519 1519 1520 1522 1523 1524 1525 1526 1527 1528 1528 1529 1530 1530 1531 1531 1532 1532 1533 1534 1535 1535 1536 1536
1494 1495 1497 1498 1499 1501 1502 1503 1505 1506 1507 1509 1510 1511 1513 1514 1515 1516 1517 1516 1516 1516 1517 1518 1519 1521 1522 1523 1523 1524 1525 1525 1525 1526 1526 1527 1527 1528 1529 1529 1530 1530 1531
1490 1491 1492 1493 1495 1496 1497 1499 1500 1501 1503 1504 1505 1507 1508 1509 1510 1512 1513 1513 1512 1512 1513 1513 1514 1516 1517 1518 1519 1519 1519 1520 1520 1521 1521 1522 1522 1523 1523 1524 1524 1525 1525
1486 1487 1488 1488 1490 1491 1492 1494 1495 1496 1498 1499 1501 1502 1503 1504 1505 1507 1508 1509 1510 1508 1507 1508 1510 1511 1512 1513 1514 1514 1514 1515 1516 1516 1516 1516 1517 1517 1517 1518 1519 1519 1519
1481 1482 1483 1483 1485 1486 1487 1488 1490 1491 1492 1494 1495 1496 1497 1498 1500 1501 1503 1504 1505 1505 1503 1503 1504 1505 1507 1508 1508 1508 1509 1509 1510 1510 1511 1511 1511 1512 1512 1512 1512 1513 1513
1476 1477 1478 1478 1480 1481 1482 1483 1484 1486 1487 1488 1490 1491 1492 1493 1494 1495 1497 1498 1499 1499 1498 1498 1499 1501 1501 1502 1502 1503 1503 1503 1504 1505 1505 1505 1506 1506 1506 1506 1506 1506 1507
1471 1472 1473 1473 1474 1475 1476 1477 1478 1480 1481 1482 1484 1485 1486 1487 1488 1490 1491 1492 1493 1494 1494 1493 1493 1494 1495 1496 1496 1497 1497 1498 1498 1498 1499 1499 1499 1499 1499 1499 1500 1500 1501
1466 1466 1467 1468 1469 1470 1470 1471 1473 1474 1475 1476 1478 1479 1480 1481 1482 1483 1485 1486 1487 1488 1489 1489 1488 1489 1490 1490 1490 1491 1491 1492 1492 1492 1492 1492 1493 1493 1493 1493 1493 1494 1494
1460 1461 1461 1462 1463 1464 1465 1466 1467 1468 1469 1471 1472 1473 1474 1475 1476 1477 1479 1480 1481 1482 1483 1483 1483 1484 1484 1485 1485 1485 1484 1485 1485 1486 1486 1486 1486 1486 1487 1487 1487 1487 1487
1455 1455 1456 1457 1458 1459 1459 1460 1462 1463 1464 1465 1466 1467 1468 1469 1470 1472 1473 1474 1475 1476 1477 1477 1478 1478 1478 1479 1479 1478 1478 1478 1478 1479 1478 1479 1479 1479 1479 1480 1480 1480 1480
1451 1451 1451 1451 1452 1453 1454 1456 1457 1457 1458 1459 1460 1461 1462 1463 1464 1465 1467 1468 1469 1470 1471 1471 1471 1472 1472 1473 1473 1473 1473 1472 1471 1473 1472 1472 1472 1472 1472 1473 1473 1473 1474
1446 1446 1446 1447 1447 1448 1449 1450 1451 1452 1453 1454 1454 1455 1456 1457 1459 1460 1460 1461 1462 1463 1465 1466 1465 1465 1466 1467 1468 1468 1467 1467 1466 1466 1466 1464 1466 1465 1466 1466 1467 1467 1467
1442 1442 1442 1442 1443 1443 1444 1445 1446 1447 1448 1448 1449 1450 1451 1452 1453 1454 1455 1455 1455 1456 1458 1459 1459 1460 1461 1462 1462 1463 1462 1462 1461 1461 1461 1459 1459 1459 1459 1460 1460 1460 1460
1437 1438 1438 1438 1438 1438 1439 1440 1441 1442 1442 1443 1444 1445 1446 1446 1447 1448 1449 1449 1449 1450 1451 1453 1454 1454 1455 1456 1456 1457 1456 1456 1454 1454 1456 1455 1453 1452 1452 1452 1453 1454 1454
1433 1433 1434 1434 1434 1434 1435 1436 1437 1437 1437 1437 1438 1439 1440 1441 1441 1442 1443 1443 1443 1444 1445 1446 1447 1447 1448 1449 1450 1451 1451 1450 1449 1449 1449 1450 1448 1448 1446 1445 1446 1447 1447